View from above orbital plane
|
View from above satellite
|
Ground track
|
The orbit data is extracted from the following two-line orbital elements,
1 27597U 02056A 21110.12795056 .00000052 00000-0 38827-4 0 9992
2 27597 98.5596 56.6232 0001532 121.8861 238.2470 14.27493873955560
Epoch (UTC): | 20 April 2021 03:04:14 |
Eccentricity: | 0.0001532 |
inclination: | 98.5596° |
perigee height: | 799 km |
apogee height: | 801 km |
right ascension of ascending node: | 56.6232° |
argument of perigee: | 121.8861° |
revolutions per day: | 14.27493873 |
mean anomaly at epoch: | 238.2470° |
orbit number at epoch: | 95556 |
The dashed part of the orbit path shows where the satellite is in the earth's shadow,
|
|